Location: Most
(50.5133°N, 13.6207°E)
Time: 14:26:03
(UTC+01:00)

UNHA 3 R/B - Pass Details

Date: 28 September 2020
Orbit: 479 x 556 km, 97.4° (Epoch: 27 October)

Event Time Altitude Azimuth Distance (km) Brightness Sun altitude
Rises 05:29:15 0° 12° (NNE) 2,645 9.2 -15.3°
Reaches altitude 10° 05:31:19 10° 12° (NNE) 1,766 8.3 -15.0°
Maximum altitude 05:35:08 85° 287° (WNW) 539 5.2 -14.4°
Drops below altitude 10° 05:39:02 10° 196° (SSW) 1,795 7.6 -13.8°
Enters shadow 05:40:25 - 196° (SSW) 2,376 8.3 -13.6°
